Home   Weather   Weipa   Past weeks
Flag for Australia

Past Weather in Weipa, Queensland, Australia — Yesterday and Last 2 Weeks

Now
75 °F

Clear.


Feels Like: 76 °F
Forecast: 97 / 66 °F
Wind: 2 mph from East

Location: Weipa City

Current Time: Oct 16, 2019 at 10:20:28 pm

Latest Report: Oct 16, 2019 at 10:00 pm


Visibility: N/A

Pressure: 29.92 "Hg

Humidity: 78%

Dew Point: 68 °F

Location of WeipaLocation

Past Weather in Weipa — Graph

°F

Weipa Temperature Yesterday

Maximum temperature yesterday: 97 °F (at 3:00 pm)
Minimum temperature yesterday: 66 °F (at 6:00 am)
Average temperature yesterday: 79 °F

High & Low Weather Summary for the Past Weeks

 TemperatureHumidityPressure
High97 °F (Oct 8, 3:00 pm)89% (Oct 12, 11:00 pm)30.01 "Hg (Oct 12, 11:00 pm)
Low66 °F (Oct 9, 4:00 am)22% (Oct 9, 3:00 pm)29.74 "Hg (Oct 12, 4:00 pm)
Average80 °F61%29.89 "Hg
* Reported Oct 1 9:00 pm — Oct 16 9:00 pm, Weipa. Weather by CustomWeather, © 2019

Note: Actual official high and low records may vary slightly from our data, if they occured in-between our weather recording intervals... More about our weather records

Advertising

Weipa Weather History for the Previous 24 Hours

Scroll right to see more
 ConditionsComfort  
Time TempWeatherWind HumidityBarometerVisibility
9:00 pm
Wed, Oct 16
77 °FClear.2 mph74%29.89 "HgN/A
8:00 pm79 °FClear.5 mph70%29.86 "HgN/A
7:00 pm79 °FSunny.7 mph74%29.86 "HgN/A
6:00 pm81 °FScattered clouds.10 mph66%29.83 "HgN/A
5:00 pm82 °FSunny.10 mph62%29.80 "HgN/A
4:00 pm84 °FBroken clouds.14 mph58%29.80 "HgN/A
3:00 pm97 °FScattered clouds.15 mph22%29.80 "HgN/A
2:00 pm97 °FScattered clouds.13 mph27%29.80 "HgN/A
1:00 pm93 °FSunny.10 mph28%29.83 "HgN/A
12:00 pm88 °FSunny.13 mph38%29.89 "HgN/A
11:00 am86 °FSunny.9 mph46%29.92 "HgN/A
10:00 am82 °FSunny.10 mph48%29.92 "HgN/A
9:00 am81 °FSunny.13 mph58%29.95 "HgN/A
8:00 am75 °FSunny.10 mph69%29.95 "HgN/A
7:00 am70 °FClear.8 mph83%29.92 "HgN/A
6:00 am68 °FClear.6 mph83%29.92 "HgN/A
5:00 am70 °FPassing clouds.8 mph83%29.89 "HgN/A
4:00 am70 °FPassing clouds.6 mph78%29.89 "HgN/A
3:00 am68 °FPassing clouds.5 mph83%29.86 "HgN/A
2:00 am70 °FClear.No wind78%29.89 "HgN/A
1:00 am72 °FClear.6 mph78%29.89 "HgN/A
12:00 am73 °FClear.6 mph74%29.92 "HgN/A
11:00 pm
Tue, Oct 15
75 °FPartly cloudy.6 mph74%29.92 "HgN/A
10:00 pm75 °FClear.5 mph78%29.89 "HgN/A
Weather by CustomWeather, © 2019

See weather overview